Location: Julian California
(33.0790°N, 116.6010°W)
Time: 14:53:27
(UTC-07:00)

Cosmos 1633 - Pass Details

Date: 19 May 2017
Orbit: 472 x 489 km, 82.5° (Epoch: 24 May)

Event Time Altitude Azimuth Distance (km) Brightness Sun altitude
Rises 20:00:23 0° 345° (NNW) 2,559 6.9 -4.3°
Reaches altitude 10° 20:02:34 10° 338° (NNW) 1,672 6.1 -4.7°
Maximum altitude 20:06:02 41° 267° (W) 708 4.0 -5.3°
Drops below altitude 10° 20:09:27 10° 196° (SSW) 1,653 5.1 -5.9°
Sets 20:11:36 0° 189° (S) 2,525 6.0 -6.3°
